Theta_e
302 302 302 302 302 302 301 301 301 301 301 301 301 301 302 302 303 302 307 306 307 306 306 306 311 312 316 321 321 319 321 318 317 316 319 325 338 338 341 341 340 343 343 343 349 353 361
301 301 301 301 301 301 301 300 300 300 301 301 301 303 305 305 305 303 306 306 307 308 310 312 310 311 316 327 319 320 322 323 323 323 321 326 339 338 338 339 338 338 339 339 342 356 360
303 302 301 301 301 301 300 300 301 301 300 301 304 306 307 307 307 304 306 306 307 309 309 309 315 316 324 328 319 318 318 330 326 323 319 326 335 340 335 335 334 332 332 332 336 348 357
310 305 303 302 301 301 301 301 301 300 301 305 307 307 307 308 308 306 307 307 307 308 310 314 316 321 329 323 317 318 318 323 329 325 320 326 333 336 332 332 333 329 327 330 333 343 351
318 311 306 303 302 302 302 301 300 300 305 306 307 307 307 308 308 307 307 307 308 310 309 314 320 322 328 317 316 317 318 322 328 327 322 322 327 333 331 330 331 331 326 328 330 333 353
319 314 308 306 303 303 302 300 300 304 306 307 307 307 307 307 308 308 307 309 312 314 315 321 321 322 323 320 317 318 318 318 325 323 324 324 331 330 329 326 331 332 327 325 327 333 352
319 317 311 306 304 303 301 300 301 306 306 307 307 307 307 307 308 308 307 309 318 318 316 322 323 322 320 317 316 317 320 320 326 327 330 331 333 332 328 327 327 329 330 328 326 328 346
318 317 312 307 305 302 301 300 303 306 307 307 308 308 307 307 307 307 307 312 314 314 314 317 320 319 316 316 316 320 323 319 326 328 329 329 332 331 330 329 329 327 328 328 329 327 330
318 316 312 307 304 301 300 301 305 306 307 307 308 307 307 307 307 309 310 314 314 315 314 315 314 315 313 314 315 318 321 324 326 327 331 327 328 329 330 330 327 327 327 328 328 327 336
317 314 311 306 303 301 300 302 306 307 307 308 307 307 307 307 309 310 313 315 314 315 313 317 314 315 315 315 314 317 316 317 321 326 326 326 327 327 327 328 326 324 326 327 326 325 326
316 313 308 305 302 301 303 306 307 307 308 308 307 307 307 305 305 310 315 314 314 314 318 316 314 314 315 313 316 315 315 314 315 318 321 324 324 327 328 326 324 324 326 325 326 324 323
313 310 306 302 302 305 308 307 308 308 307 307 307 308 306 312 310 315 316 313 314 314 318 316 315 314 313 313 314 315 315 314 315 315 316 318 320 323 326 327 325 325 324 323 323 323 325
311 308 304 303 305 308 307 308 308 307 307 307 308 309 307 305 314 313 312 313 315 315 317 315 314 313 313 314 315 315 315 314 313 314 315 318 320 321 322 324 322 323 322 322 324 324 326
307 307 305 306 309 308 308 307 307 307 307 307 309 310 309 311 312 313 312 314 319 318 315 315 314 314 314 315 315 315 314 313 315 313 313 315 315 315 321 324 326 322 320 322 326 327 326
305 305 306 308 308 308 308 308 308 307 307 307 310 314 315 316 314 312 312 317 318 316 316 315 314 313 314 313 314 315 316 314 315 315 316 316 317 318 319 322 325 325 325 321 322 323 325
306 305 306 308 308 308 308 308 308 308 308 309 311 315 318 315 313 312 315 317 318 316 316 316 317 316 317 317 315 315 315 315 317 316 314 315 314 316 317 319 323 323 323 322 322 326 328
305 305 307 309 308 308 309 309 308 307 308 313 315 320 317 317 316 316 318 321 319 317 317 316 317 317 317 317 317 318 318 316 316 316 314 315 313 313 314 317 319 321 320 321 321 325 328
305 305 308 309 308 309 309 308 308 307 308 312 317 323 317 317 320 322 321 318 315 317 317 317 317 317 317 317 317 317 317 317 316 315 315 314 313 312 313 314 315 315 318 317 318 322 326
306 306 308 309 309 309 309 308 308 308 308 309 318 321 317 318 320 320 319 316 315 315 315 315 316 315 315 316 317 318 317 316 315 314 315 312 313 314 313 313 315 316 315 313 312 311 314
305 306 308 309 309 309 308 308 308 309 310 310 319 322 318 317 316 316 318 317 316 314 314 314 315 315 314 314 314 317 317 316 316 315 316 313 312 313 314 315 314 315 315 315 313 310 312
305 307 308 309 308 309 308 308 309 311 312 313 320 316 316 317 316 316 315 314 313 313 313 313 315 313 312 313 313 314 314 315 315 317 315 312 312 312 312 313 313 314 314 315 314 313 314
305 307 308 308 308 308 308 308 310 312 314 315 316 318 316 315 316 315 314 315 314 314 315 313 314 313 313 313 313 313 312 312 313 314 314 314 315 312 313 313 313 314 315 316 316 315 314
306 308 308 308 308 308 308 308 310 313 315 315 316 316 317 314 315 314 314 314 314 314 313 312 314 314 314 313 312 311 310 309 310 311 314 316 316 317 316 314 315 316 314 315 315 316 313
307 308 309 308 308 308 309 308 310 312 313 314 314 316 319 316 314 315 314 314 314 313 314 313 313 314 313 311 312 311 312 311 311 310 309 313 316 318 316 316 318 316 314 315 316 316 315
307 309 309 308 308 308 308 308 309 312 314 314 314 315 318 318 316 315 315 315 315 314 314 314 313 313 312 312 314 315 316 317 316 314 314 313 313 316 314 316 315 314 313 313 314 315 315
306 309 310 308 309 309 309 308 309 312 314 316 314 315 317 321 316 315 317 315 315 314 315 315 313 313 311 312 316 317 319 316 315 314 312 313 315 319 318 316 316 312 312 312 312 313 313
306 309 310 309 309 309 309 309 308 309 313 315 316 315 317 322 316 316 315 316 315 315 316 315 315 314 311 313 314 314 316 313 313 314 314 313 315 317 319 322 319 314 313 315 317 316 315
306 309 310 309 309 309 309 309 309 308 310 314 317 315 316 319 317 316 315 316 316 315 318 315 317 315 313 313 312 312 312 312 312 311 312 313 315 318 317 320 317 311 312 316 313 310 310
306 309 309 310 310 309 309 309 309 309 309 313 317 316 315 316 318 317 317 315 314 314 315 314 316 315 313 314 312 312 312 312 313 313 312 312 313 312 311 313 310 310 309 308 308 308 308
Wind_Speed
19 19 20 20 21 22 23 24 25 25 27 26 27 29 30 30 30 30 28 21 21 18 14 12 7 6 1 4 8 7 5 13 15 16 18 13 10 15 15 12 15 15 17 19 5 13 21
19 19 19 20 21 21 23 24 25 26 27 28 29 29 29 30 30 30 29 22 22 15 12 9 9 2 2 4 4 8 5 12 13 18 18 18 10 12 11 14 14 15 17 16 11 12 19
20 20 21 20 21 22 23 24 24 25 27 28 29 29 31 32 30 30 28 22 22 13 12 8 3 4 5 12 1 5 7 15 15 21 10 23 25 15 8 10 13 13 12 13 8 8 7
20 20 20 21 21 22 23 23 24 26 27 28 30 30 32 32 31 30 28 22 19 13 9 3 2 5 7 6 9 8 11 16 18 20 23 24 26 16 10 9 14 10 8 6 10 7 7
23 21 20 21 22 22 23 23 25 26 27 29 31 31 32 33 32 31 28 22 19 13 9 4 3 5 7 8 5 8 5 11 18 19 23 24 20 11 8 6 6 7 6 8 13 14 6
22 21 20 21 21 22 23 24 26 27 27 29 32 32 32 33 31 30 29 24 15 10 6 6 11 5 8 9 4 3 8 13 13 11 14 16 10 5 6 3 8 9 8 8 12 17 15
21 22 19 19 20 21 23 25 26 27 29 31 32 32 33 34 30 27 30 9 1 1 5 8 5 6 6 5 3 8 11 9 6 7 9 8 4 9 10 10 12 16 15 14 11 16 17
19 21 19 18 19 21 24 26 27 29 30 32 32 32 32 34 29 24 17 4 6 6 7 12 19 15 6 5 3 5 4 6 6 7 8 6 13 11 10 15 16 19 16 16 15 13 8
18 20 19 18 19 21 24 27 28 30 32 33 32 32 33 33 27 13 8 16 9 11 4 10 14 10 8 6 7 7 6 6 9 10 11 11 11 19 16 16 17 16 11 12 11 16 8
17 19 18 18 20 23 25 28 30 32 33 34 33 32 34 30 9 14 10 4 9 5 3 5 10 3 5 1 4 9 4 3 5 11 12 10 16 17 17 17 13 10 10 12 13 8 2
18 17 17 19 22 24 26 29 32 33 35 34 34 33 29 16 15 7 16 13 9 8 3 10 7 3 3 6 2 3 7 4 8 10 6 10 14 16 18 15 17 13 10 10 10 7 7
17 17 18 21 24 27 28 30 33 34 35 34 34 30 23 5 7 11 19 19 12 2 5 6 6 6 4 6 6 6 4 4 6 8 11 11 14 11 14 16 11 12 10 11 6 4 7
18 17 19 23 26 28 30 32 32 34 35 34 32 24 14 8 5 12 16 9 2 3 10 6 7 7 10 8 6 3 6 7 4 1 5 9 12 10 11 9 11 7 2 3 3 5 8
20 20 22 25 27 30 30 32 33 35 36 36 31 19 8 10 9 16 15 3 4 8 13 5 8 5 1 7 5 8 1 6 7 9 5 5 7 11 7 6 4 7 9 5 8 6 7
22 24 25 26 28 30 31 32 34 35 36 39 26 8 7 11 11 7 2 3 6 10 14 13 2 2 3 4 1 4 2 6 7 13 1 6 6 16 12 14 8 6 5 9 5 12 4
25 27 27 27 29 30 30 32 34 36 37 27 18 7 8 4 1 9 2 3 8 13 11 9 8 8 8 12 1 7 6 5 4 9 8 7 6 7 13 5 7 8 4 5 4 6 6
26 28 28 27 29 29 30 32 33 35 39 15 4 3 6 8 4 2 2 5 6 11 10 7 7 6 9 9 10 11 12 15 17 11 9 5 2 11 9 4 3 1 2 1 0 1 4
28 29 27 27 27 28 29 30 30 32 37 18 8 1 10 4 2 1 4 5 9 13 12 8 5 7 11 12 8 7 9 9 7 9 6 8 3 6 10 18 15 11 3 0 3 7 3
28 28 27 27 26 27 27 27 27 26 27 15 5 2 9 11 4 4 7 16 12 12 15 13 10 11 9 7 5 8 11 13 16 8 5 7 4 5 10 6 5 6 6 6 4 4 10
27 27 26 25 24 25 26 26 25 22 25 12 3 2 4 6 7 12 6 12 12 17 13 10 9 10 12 9 8 4 5 5 10 10 9 6 3 3 6 7 9 12 19 17 5 2 5
26 26 25 23 22 23 24 23 23 23 21 4 2 4 4 4 5 7 12 9 11 9 9 12 7 13 11 6 8 5 10 9 12 7 5 4 4 7 12 13 14 16 18 19 13 9 4
25 25 24 21 21 22 21 21 22 25 14 3 3 3 4 3 5 11 8 8 10 11 8 9 10 13 10 5 7 11 11 9 5 6 6 3 4 7 13 12 17 17 17 20 19 16 15
25 24 21 20 19 19 18 18 19 24 16 7 10 3 2 4 7 6 3 5 10 8 7 7 6 4 6 9 9 10 11 10 10 8 3 1 3 5 7 8 13 12 12 16 18 18 11
23 23 20 18 18 17 16 16 16 19 22 6 9 8 3 4 5 5 7 4 6 2 2 5 4 5 6 9 12 11 12 11 12 10 8 7 5 5 4 5 3 9 8 14 18 17 18
22 21 18 15 15 14 13 13 13 14 16 12 11 7 3 4 4 4 8 8 7 3 1 4 7 5 5 7 4 6 4 4 6 6 5 6 4 4 3 4 10 14 12 10 7 10 10
21 19 17 13 11 10 10 10 11 9 13 11 14 13 4 3 5 2 2 5 5 5 4 2 2 6 7 5 1 3 3 4 4 9 10 10 4 2 2 4 6 6 6 13 4 9 9
19 17 15 11 9 7 8 7 7 8 9 13 6 11 5 3 2 4 4 3 4 3 2 1 3 3 6 3 4 3 2 2 4 6 6 5 4 3 7 6 6 12 19 10 3 5 19
18 15 13 10 7 6 6 5 6 6 8 11 4 10 6 3 0 4 3 2 3 3 2 3 2 5 4 4 3 2 2 2 2 2 5 4 5 3 5 3 5 20 13 6 11 19 14
17 14 11 9 7 6 5 5 4 4 4 8 4 6 10 4 4 15 15 2 0 4 2 3 4 2 2 1 1 0 1 2 2 2 2 1 2 3 3 5 13 8 9 13 11 16 18
Wind_Direction
1 359 357 355 354 353 352 350 349 347 346 345 346 345 343 341 341 341 339 332 334 330 323 312 310 306 109 214 253 157 176 200 200 193 203 220 242 227 220 233 245 243 250 260 164 132 117
358 355 353 352 352 350 349 348 348 347 346 344 344 343 341 339 338 338 335 328 333 326 325 315 305 261 191 253 135 162 186 170 188 189 210 223 241 234 229 241 249 253 255 257 255 151 145
355 352 351 350 348 348 349 347 346 345 345 343 342 341 339 338 336 333 330 324 328 314 322 306 293 170 253 245 295 223 201 210 191 196 212 224 243 276 250 274 257 275 293 295 274 162 136
351 348 347 346 347 346 346 345 344 344 344 341 341 341 338 335 334 331 325 319 324 306 306 300 131 235 256 220 242 229 222 227 190 200 217 228 239 256 262 278 282 284 291 288 286 181 185
352 347 344 345 345 344 344 345 343 343 343 340 339 341 337 332 331 329 320 315 312 295 283 269 257 215 270 196 224 230 209 222 176 195 215 241 252 248 279 276 311 289 254 248 259 255 158
344 344 344 343 343 342 343 343 344 343 341 340 340 340 335 331 329 327 320 318 299 280 280 236 266 281 259 235 95 276 196 254 164 186 214 233 251 206 255 206 227 248 245 237 251 253 179
337 340 340 340 341 342 342 342 343 342 341 340 339 338 333 328 326 327 325 342 205 160 241 221 188 235 159 114 184 239 170 252 184 194 210 220 245 222 224 234 255 263 278 281 258 245 188
334 337 340 340 341 342 342 342 341 341 340 340 338 337 332 326 324 319 311 249 29 311 294 264 249 258 289 1 237 164 171 200 179 199 203 238 227 240 226 236 235 250 264 277 287 281 190
332 337 341 343 344 344 342 340 341 339 339 339 339 337 332 325 324 325 267 266 327 293 273 276 237 226 237 177 255 174 181 231 188 214 205 221 234 222 237 246 241 245 239 268 270 304 17
340 341 342 344 344 343 342 340 339 340 340 339 338 335 333 329 323 325 284 266 321 10 292 253 170 194 118 126 275 134 67 359 269 232 221 231 237 251 223 238 251 253 257 264 270 306 157
346 344 348 346 343 342 341 341 343 343 340 337 336 335 328 330 303 304 321 339 342 305 291 132 113 117 198 192 93 136 66 345 274 286 244 251 220 242 248 237 226 253 271 272 287 264 308
352 353 349 345 344 342 341 345 344 342 340 337 333 335 326 45 290 288 315 321 302 264 233 130 131 179 183 234 255 139 203 187 300 297 290 273 286 243 244 257 250 222 258 284 312 334 272
358 354 349 346 344 343 345 344 344 343 341 338 329 330 311 287 250 340 330 316 262 239 136 152 157 159 199 170 182 187 228 188 207 214 267 292 277 288 281 258 259 244 273 293 320 275 255
356 352 351 349 347 346 348 345 345 344 341 339 327 326 291 264 285 315 315 312 268 13 9 83 103 69 295 146 168 169 207 305 225 228 266 263 280 241 261 257 243 232 194 171 216 227 259
357 353 350 352 350 348 348 346 346 344 340 342 334 343 278 265 279 288 315 279 20 26 7 355 111 157 218 220 121 85 224 271 296 49 356 11 287 340 304 234 183 274 254 217 256 280 311
354 351 350 351 348 348 349 348 347 344 342 351 335 311 260 331 279 270 282 277 61 59 4 351 359 9 1 24 211 167 190 347 85 62 56 4 322 304 333 335 204 191 264 16 251 246 258
351 350 350 348 348 349 349 350 349 348 346 1 335 282 29 331 233 271 270 64 3 53 30 29 6 2 354 358 358 352 6 31 22 23 87 38 94 291 341 322 241 346 332 68 171 243 242
350 349 348 346 350 351 350 351 351 354 354 7 330 264 3 332 263 22 350 48 12 19 16 26 25 7 23 0 3 348 355 15 34 19 11 17 316 306 286 306 317 299 267 97 155 280 240
349 347 347 348 350 350 350 349 352 358 2 339 316 264 34 356 15 8 36 82 58 19 27 16 16 21 3 350 1 4 7 30 21 37 32 343 337 332 326 327 355 347 307 263 251 257 265
348 348 348 350 355 353 350 351 355 355 353 347 298 1 10 37 15 30 36 38 35 36 31 7 32 43 18 359 349 308 307 346 37 26 3 19 295 251 269 329 325 321 322 325 331 236 282
348 349 350 352 356 356 353 357 359 352 350 5 253 63 351 16 7 61 54 43 33 27 356 35 25 24 14 351 336 320 5 345 352 351 346 338 274 295 293 303 305 300 302 304 308 296 294
348 349 352 356 357 359 360 4 7 4 354 57 42 23 335 355 2 76 44 14 30 16 4 21 21 7 353 343 2 342 347 340 322 337 330 348 302 272 284 295 291 288 292 294 296 290 290
347 349 355 358 357 3 5 12 15 16 31 15 351 300 241 7 38 62 54 30 41 30 357 11 25 352 317 344 323 310 302 294 286 288 254 275 16 359 283 325 319 296 259 270 276 285 290
348 348 355 358 1 6 8 17 20 20 23 3 11 318 14 77 72 48 19 3 5 67 326 0 36 10 346 316 300 278 262 258 253 259 261 247 192 180 279 352 257 258 300 291 289 293 297
347 347 354 355 4 9 9 21 23 26 25 27 18 1 356 41 48 59 48 21 5 67 195 343 40 331 324 299 335 318 35 61 316 314 304 314 256 196 192 209 284 298 280 292 346 305 319
347 347 353 354 4 8 9 18 28 27 13 31 24 6 319 338 58 32 331 67 20 359 17 114 11 48 2 12 353 342 31 3 352 335 10 353 351 180 241 223 228 283 265 287 13 273 338
345 344 352 351 359 2 3 9 15 17 14 5 9 6 310 321 71 352 48 27 7 73 252 52 349 34 58 9 36 25 27 15 351 335 337 323 346 276 234 244 272 11 341 327 219 314 333
344 342 349 348 348 350 348 353 354 2 358 3 341 22 15 318 36 29 147 230 183 211 240 36 72 11 34 46 37 22 8 356 327 282 321 332 340 331 338 256 248 8 354 3 332 316 325
341 340 344 348 342 332 330 336 337 346 355 357 311 10 1 258 302 310 292 181 18 93 296 97 139 97 126 62 104 12 319 316 255 293 73 78 21 314 272 283 319 354 321 319 321 311 313